The Dilly Family's Weather Page
McMurray, PA 15317   Weather
Using a La Crosse Technology Model 2315 Weather Station

  Local Radar

Local Radar

  Graphs, Details
Detailed Weather
Detailed Reports
Mobile Version of This Page
Brief Version of This Page
  Maps
Temperature
Heat Index
Windchill
Humidity
Radar
Dew Point
Wind
Visibility
Visible Satellite
Satellite
Fronts
Snow Depth
Jet Stream
Flight Rules
  Forecast Maps
Temperature Forecast
Maximum Temperature Forecast
Minimum Temperature Forecast
Dewpoint Forecast
Prevalent Weather
12Hr Probability of Precip.
Sky Cover
  Health Maps
UV Forecast
Air Quality
Peak Air Quality Index
  Weather Station
La Crosse Technology
 
 
Weather Underground PWS KPAMCMUR4
KPAMCMUR4 Dashboard
  Current Conditions [Select Refresh to Update]

Updated: 12:24am on 11/28/14

Currently:
28.9°

Clear
Overcast

High: 28.9° 
(12:12am) 
Low: 28.7° 
(12:00am)
Wind: 8 mph from the W
Gust: 8 mph
Today's High Wind: 8 mph (12:21am)
Humidity: 82%
Pressure: 30.17 in  (Steady) 
Pressure Rate: -0.004 in/hr
Dew Point: 24.1°
Wind Chill: 21.1°
Heat Index (feels like): 33.4°
Comfort Level: Uncomfortably Cold
Temperature Rate:  -0.12°/hr
 
  5 Day Forecast
 
Fri Sat Sun Mon Tue
Clear Clear Clear Clear Clear
Mostly Cloudy Mostly Cloudy Chance Rain Cloudy Partly Cloudy
37° 50° 57° 57° 39°
27° 43° 45° 23° 36°

  Records and Normals
 
Temperature Forecast Normal Record
High 37° 54° 76°
(1990)
Low 27° 34° 18°
(1991)
 
  Almanac
Sunrise:  
7:21am
Moonrise: 
12:13pm

Moon Phase:
36%

Sunset: 
4:56pm
Moonset:  
11:43pm
 
  Weather Underground     KPAMCMUR4

  Weather Advisories
No Warning
Full Advisory Text...
  Weather Map

 
  Web Cams   (Northerly View)
Northerly view toward Pittsburgh.
 
  Rainfall Totals
Hourly Rain 0.00 in
Daily Rain 0.00 in
Monthly Rain 32.45 in
Yearly Rain 32.45 in
Normal Rain, month to date       0.00 in
Normal Rain, year to date 0.00 in
 
 
Weather.com
WeatherUnderground NorthEast Fronts
WeatherUnderground NorthEast Radar
WeatherBug NorthEast Radar
WeatherBug, Peters HS
WPXI Weather
KDKA Weather
WTEA Weather
Intellacast Canonsburg
AccuWeather
Yahoo, McMurray
Twitter, Pittsburgh
Fox53 Radar
Time and Date, Pittsburgh
NOAA Weather Pitt
FilghtStats PIT
NWS Thompsonville
USGS Tides and Temperature at Manasquan
NWS US Radar - Loop
  Local Weather Exchange Network
Station ID

City 
(Click for Map Location)

Neighborhood 
(Click for History)
Last Update (Date & Time)

Temperature
 (°)

Dew
Point (°)
Humidity 
(%)
Wind 
(mph)
from the Wind Gust 
(mph) 
Pressure (in) Hourly
Rain (in)
KPACANON4 Canonsburg Morgan's Point 11/28 00:10:25 28.6 24.0 82 3 SSW 0 29.96 0.00
KPACANON3 Canonsburg Canonsburg Neighborhood Weather 11/28 00:20:06 28.0 28.0 99 1 NW 5 30.36 0.00
KPACANON5 Canonsburg Canonsburg 11/28 00:20:09 30.0 25.0 83 0 WNW 3 30.19 0.00
KPAMCMUR4 McMurray Thompsonville-McMurray 11/28 00:15:14 28.9 24.0 82 0 West 0 30.17 0.00
KPACANON6 Canonsburg Sunset Acres, McMurray PA KPACANON6 11/28 00:09:48 28.2 26.0 92 5 WNW 0 30.17 0.00
KPAMCMUR3 McMurray St. Benedict the Abbot 11/28 00:19:58 28.9 25.0 86 4 SW 7 30.21 0.00
KPABRIDG2 Bridgeville Hunting Ridge 11/28 00:15:04 28.6 24.0 83 8 North 11 29.01 0.00
KPAEIGHT3 Eighty Four Nottingham Twp. 11/28 00:20:06 28.1 22.0 79 12 West 12 30.28 0.00
KPAVENET5 Venetia Willamar 11/28 00:15:26 27.5 24.0 87 2 NW 0 30.12 0.00
KPABRIDG1 Bridgeville Olde Orchard South Fayette Bridgeville 11/28 00:20:04 27.7 23.0 83 0 North 1 30.14 0.00
KPAVENET3 Venetia Bower Hill Rd 11/28 00:20:06 29.2 26.0 88 0 SW 2 30.25 0.00
KPABETHE3 Bethel Park Bethel Park 11/28 00:15:17 28.9 26.0 88 6 WNW 12 30.25 0.00
KPAWASHI5 Washington Cameron Estates/South Strabane 11/28 00:06:59 27.4 24.0 85 5 WSW 0 30.21 0.00
KPAVENET4 Venetia Sugar Run Road 11/28 00:20:05 28.5 20.0 69 3 West 9 30.04 0.00
KPAMTLEB2 Mount Lebanon Mount Lebanon 11/28 00:20:05 28.8 13.0 51 0 SSE 0 30.17 0.00
KPASCOTT2 Scott Township Scott Township Neighborhood Weather 11/28 00:20:02 31.1 21.0 67 4 ESE 6 30.25 0.00
KPAPITTS50 Pittsburgh Dormont 11/28 00:20:04 29.7 27.0 89 2 West 5 30.67 0.00
KPAPITTS29 Pittsburgh Carrick/Pittsburgh 11/28 00:18:42 29.2 25.0 85 0 NW 7 30.23 0.00
KPACRAFT2 Crafton Bradford Court 11/28 00:19:49 30.2 30.0 99 3 WSW 4 29.94 0.00
KPAPITTS58 Pittsburgh Robinson Township 11/28 00:20:07 28.4 25.0 86 8 SSW 8 30.19 0.00
KPAIMPER5 Imperial Imperial 11/28 00:20:07 29.0 25.0 84 0 North 0 30.18 0.00
KPAIMPER1 Imperial Imperial Neighborhood Weather 11/28 00:16:29 28.7 26.0 90 0 NW 2 30.25 0.00
KPAIMPER4 Imperial Walden Woods 11/28 00:20:09 29.1 26.0 89 6 SW 10 29.87 0.00
KPAPITTS46 Pittsburgh Baldwin 11/28 00:20:05 30.1 25.0 82 0 North 0 30.21 0.00
KPAPITTS62 Pittsburgh Crafton Heights 11/28 00:20:08 29.0 23.0 77 0 WNW 0 30.16 0.00
KPACLAIR2 Clairton Jefferson Hills 11/28 00:20:08 30.4 23.0 73 0 WNW 2 30.24 0.00
KPAWASHI2 Washington South Franklin, Alamae Lakes 11/28 00:15:24 28.2 25.0 89 10 WSW 11 30.25 0.00
KPAMOON3 Moon Sonoma Ridge 11/28 00:15:49 28.1 25.0 87 2 West 5 30.25 0.00
KPABURGS2 Burgsttown Pa Burgettstown PA 11/28 00:16:15 28.0 28.0 99 2 WSW 0 30.13 0.00
KPAMUNHA2 Munhall Lower Gates Manor 11/28 00:09:36 29.5 24.0 80 2 WNW 0 30.21 0.00
KPAPITTS56 Pittsburgh Carnegie Mellon University 11/28 00:13:09 30.8 26.0 81 6 West 13 --- 0.00
KPAPITTS75 Pittsburgh Shadyside 11/28 00:06:19 31.1 27.0 85 0 SSW 1 30.24 0.00
KPAPITTS33 Pittsburgh Squirrel Hill 11/28 00:10:26 32.7 0.0 0 0 North 0 29.39 0.00
KPAPITTS54 Pittsburgh Bloomfield 11/28 00:20:08 31.5 28.0 86 0 North 0 30.30 0.00
KPAMOONT2 Moon Township Moon Township 11/28 00:09:58 29.1 27.0 91 3 West 0 30.25 0.00
KAFJ Washington Official Station 11/28 00:15:00 28.0 23.0 80 7 WSW --- 30.23 ---
KAGC Pittsburgh Allegheny Co. Official Station 11/27 23:53:00 29.0 21.0 72 9 West --- 30.25 ---
KPIT Pittsburgh Official Station 11/27 23:51:00 29.0 24.0 82 13 West --- 30.26 ---
KHLG Wheeling Official Station 11/28 00:04:00 28.0 24.0 85 13 West --- 30.23 ---
  Full Advisory Text
No Warnings

11/28/14 4+ 12:24am   - http://weatherstation.wunderground.com/weatherstation/updateweatherstation.php?action=updateraw&ID=KPASMITH2&PASSWORD=&dateutc=2010-07-05+22%3A09%3A33&winddir=W&tempf=28.9&windspeedmph=8&humidity=82&dewptf=24.1&baromin=30.17&rainin=0.00&dailyrainin=0.00

Ambient Weather and Weather Underground
 Never base important decisions on this or any weather information obtained from the Internet
Updated Automatically by Ambient Weather's Virtual Weather Station  V14.00

Template updated: 5:35 PM 6/9/2011